DH0GMA Weather Reports


Display with metric or nautical units.
time (UTC)temp
F
wind
direction
speed
MPH
gust
MPH
rain 1hr
in
rain 24hr
in
rain mn
in
humidity
%
barometer
mb
20260507121627 53 176 2.0 6.0 0.00 0.24 0.03 85 1014.4
20260507120627 54 178 1.0 4.0 0.00 0.24 0.03 86 1014.4
20260507115627 53 267 1.0 3.0 0.00 0.24 0.03 87 1014.4
20260507114627 53 163 1.0 4.0 0.01 0.24 0.03 86 1014.5
20260507113626 52 260 0.0 4.0 0.01 0.24 0.03 88 1014.3
20260507112626 52 258 2.0 5.0 0.01 0.24 0.03 89 1014.4
20260507111626 52 164 0.0 4.0 0.01 0.24 0.03 89 1014.4
20260507110626 52 143 2.0 4.0 0.01 0.24 0.03 89 1014.4
20260507105626 52 172 2.0 4.0 0.01 0.24 0.03 88 1014.4
20260507104626 52 244 2.0 5.0 0.00 0.24 0.02 87 1014.4
20260507103626 52 193 2.0 3.0 0.00 0.24 0.02 88 1014.4
20260507102627 51 149 1.0 6.0 0.00 0.24 0.02 88 1014.3
20260507101628 51 154 3.0 6.0 0.00 0.24 0.02 88 1014.3
20260507100628 51 160 1.0 4.0 0.00 0.24 0.02 88 1014.3
20260507095627 51 220 2.0 6.0 0.00 0.24 0.02 88 1014.3
20260507094627 51 258 1.0 3.0 0.00 0.24 0.02 88 1014.3
20260507093627 51 202 2.0 8.0 0.00 0.24 0.02 88 1014.1
20260507092627 51 223 2.0 5.0 0.00 0.24 0.02 89 1014.0
20260507091627 51 241 3.0 6.0 0.00 0.24 0.02 89 1014.0
20260507090627 51 274 1.0 3.0 0.00 0.24 0.02 89 1013.9
20260507085627 51 241 2.0 4.0 0.00 0.24 0.02 89 1013.7
20260507084626 51 277 2.0 4.0 0.00 0.24 0.02 89 1013.6
20260507083626 51 179 2.0 8.0 0.01 0.24 0.02 91 1013.5
20260507082626 51 285 1.0 5.0 0.01 0.24 0.02 92 1013.6
20260507081626 50 139 1.0 4.0 0.01 0.24 0.02 92 1013.5
20260507080626 50 257 4.0 7.0 0.01 0.24 0.02 92 1013.5
20260507075627 49 157 3.0 8.0 0.01 0.24 0.02 92 1013.4
20260507074626 49 259 3.0 9.0 0.01 0.24 0.02 92 1013.5
20260507073626 49 154 2.0 4.0 0.01 0.23 0.02 93 1013.3
20260507072626 49 164 3.0 4.0 0.01 0.23 0.02 93 1013.3
20260507071626 48 245 1.0 4.0 0.02 0.23 0.02 92 1013.2
20260507070628 48 267 1.0 3.0 0.02 0.23 0.02 92 1013.1
20260507065628 48 283 1.0 3.0 0.02 0.23 0.02 92 1013.0
20260507064627 48 256 1.0 5.0 0.02 0.23 0.02 92 1012.9
20260507063627 48 219 1.0 6.0 0.01 0.22 0.01 92 1012.8
20260507062627 48 203 1.0 4.0 0.01 0.22 0.01 92 1012.8
20260507061627 48 196 1.0 6.0 0.00 0.21 0.00 91 1012.8
20260507060627 49 163 2.0 8.0 0.00 0.21 0.00 91 1012.7
20260507055627 48 195 1.0 4.0 0.00 0.21 0.00 92 1012.6
20260507054627 48 159 2.0 5.0 0.00 0.21 0.00 92 1012.4
20260507053627 47 148 3.0 5.0 0.00 0.21 0.00 92 1012.4
20260507052627 47 269 1.0 4.0 0.00 0.21 0.00 91 1012.4
20260507051627 47 174 2.0 5.0 0.00 0.21 0.00 91 1012.2
20260507050626 47 191 2.0 3.0 0.00 0.21 0.00 91 1012.2
20260507045626 47 213 2.0 3.0 0.00 0.21 0.00 91 1012.0
20260507044626 47 197 1.0 5.0 0.00 0.21 0.00 91 1012.0
20260507043626 47 187 2.0 4.0 0.00 0.21 0.00 91 1011.8
20260507042626 47 214 0.0 3.0 0.00 0.21 0.00 91 1011.6
20260507041626 46 246 2.0 5.0 0.00 0.21 0.00 92 1011.4
20260507040628 46 243 3.0 8.0 0.00 0.21 0.00 92 1011.3
20260507035628 46 170 1.0 5.0 0.00 0.21 0.00 92 1011.3
20260507034626 45 177 1.0 4.0 0.00 0.21 0.00 92 1011.3
20260507033626 45 197 2.0 4.0 0.00 0.21 0.00 92 1011.3
20260507032626 45 201 1.0 3.0 0.00 0.21 0.00 92 1011.1
20260507031626 45 167 1.0 3.0 0.00 0.21 0.00 91 1011.1
20260507030626 45 209 2.0 4.0 0.00 0.21 0.00 91 1011.0
20260507025626 45 267 0.0 3.0 0.00 0.21 0.00 92 1010.9
20260507024626 45 227 1.0 4.0 0.00 0.21 0.00 91 1010.9
20260507023626 45 156 2.0 6.0 0.00 0.21 0.00 91 1010.7
20260507022627 45 193 2.0 4.0 0.00 0.21 0.00 91 1010.8
20260507021627 46 181 2.0 5.0 0.00 0.21 0.00 92 1010.8
20260507020627 46 275 2.0 7.0 0.00 0.21 0.00 92 1010.8
20260507015627 46 160 4.0 7.0 0.00 0.21 0.00 92 1010.7
20260507014627 46 273 2.0 7.0 0.00 0.21 0.00 92 1010.7
20260507013627 46 273 3.0 7.0 0.00 0.21 0.00 92 1010.6
20260507012627 46 158 3.0 9.0 0.00 0.21 0.00 92 1010.6
20260507011627 46 215 2.0 6.0 0.00 0.21 0.00 93 1010.4
20260507010626 46 149 2.0 6.0 0.00 0.21 0.00 92 1010.4
20260507005626 46 166 3.0 5.0 0.00 0.21 0.00 92 1010.4
20260507004626 46 199 3.0 5.0 0.00 0.21 0.00 92 1010.2
20260507003626 46 195 2.0 6.0 0.00 0.21 0.00 93 1010.3
20260507002626 46 185 3.0 5.0 0.00 0.21 0.00 93 1010.4
20260507001626 46 142 1.0 3.0 0.00 0.21 0.00 92 1010.4
20260507000626 46 196 1.0 4.0 0.00 0.21 0.00 92 1010.5
20260506235626 46 213 3.0 4.0 0.00 0.21 0.00 92 1010.4
20260506234626 46 159 3.0 4.0 0.00 0.21 0.00 92 1010.4
20260506233625 46 168 1.0 4.0 0.00 0.21 0.00 91 1010.4
20260506232627 46 160 1.0 3.0 0.00 0.21 0.00 91 1010.5
20260506231627 47 147 2.0 6.0 0.00 0.21 0.00 91 1010.4
20260506230627 47 148 0.0 1.0 0.00 0.21 0.00 91 1010.4
20260506225627 47 144 0.0 4.0 0.00 0.21 0.00 91 1010.3
20260506224627 47 175 2.0 4.0 0.00 0.21 0.00 91 1010.3
20260506223627 47 185 1.0 4.0 0.00 0.21 0.00 91 1010.2
20260506222627 47 185 2.0 5.0 0.00 0.21 0.00 91 1010.4
20260506221626 47 176 2.0 4.0 0.00 0.21 0.00 90 1010.2
20260506220626 47 157 2.0 5.0 0.00 0.21 0.00 90 1010.1
20260506215626 47 168 2.0 5.0 0.00 0.21 0.21 90 1010.0
20260506214626 48 172 2.0 4.0 0.00 0.21 0.21 90 1009.9
20260506213626 48 170 1.0 3.0 0.00 0.21 0.21 90 1009.9
20260506212626 48 172 1.0 6.0 0.00 0.21 0.21 90 1009.8
20260506211626 48 167 1.0 3.0 0.00 0.21 0.21 90 1009.8
20260506210626 48 253 2.0 6.0 0.00 0.21 0.21 90 1009.7
20260506205626 49 151 2.0 4.0 0.00 0.21 0.21 90 1009.6
20260506204625 49 147 2.0 4.0 0.00 0.21 0.21 89 1009.6
20260506203625 49 242 2.0 8.0 0.00 0.21 0.21 90 1009.7
20260506202627 49 174 2.0 4.0 0.00 0.21 0.21 90 1009.7
20260506201627 49 153 3.0 7.0 0.00 0.21 0.21 90 1009.7
20260506200627 49 185 2.0 6.0 0.00 0.21 0.21 89 1009.6
20260506195627 49 203 3.0 6.0 0.00 0.21 0.21 89 1009.5
20260506194627 49 176 3.0 8.0 0.00 0.21 0.21 89 1009.4
20260506193627 49 167 3.0 9.0 0.00 0.21 0.21 89 1009.3
20260506192627 49 205 2.0 8.0 0.00 0.21 0.21 89 1009.0
20260506191627 49 176 3.0 8.0 0.00 0.21 0.21 90 1008.9
20260506190626 49 276 3.0 7.0 0.00 0.21 0.21 90 1008.7
20260506185626 49 207 3.0 8.0 0.00 0.21 0.21 91 1008.6
20260506184626 49 162 2.0 5.0 0.00 0.21 0.21 91 1008.6
20260506183626 49 196 2.0 4.0 0.00 0.21 0.21 91 1008.3
20260506182626 50 197 1.0 4.0 0.00 0.21 0.21 91 1008.2
20260506181626 50 227 4.0 8.0 0.00 0.21 0.21 92 1008.2
20260506180626 50 176 3.0 7.0 0.00 0.21 0.21 91 1008.2
20260506175625 50 127 3.0 7.0 0.00 0.21 0.21 91 1008.0
20260506174627 50 219 2.0 5.0 0.00 0.21 0.21 91 1007.8
20260506173627 50 274 3.0 6.0 0.01 0.21 0.21 91 1007.8
20260506172627 50 178 3.0 7.0 0.01 0.21 0.21 91 1007.6
20260506171627 50 144 2.0 8.0 0.01 0.21 0.21 91 1007.4
20260506170627 50 208 3.0 10.0 0.02 0.21 0.21 91 1007.4
20260506165627 50 187 1.0 8.0 0.02 0.21 0.21 91 1007.3
20260506164627 50 266 3.0 11.0 0.02 0.21 0.21 92 1007.0
20260506163627 49 262 3.0 12.0 0.02 0.20 0.20 92 1007.2
20260506162626 49 163 5.0 11.0 0.04 0.20 0.20 91 1007.1
20260506161625 50 145 3.0 10.0 0.05 0.20 0.20 91 1007.2
20260506160625 49 8 5.0 12.0 0.20 0.20 0.20 91 1007.0
20260506155627 50 208 4.0 12.0 0.20 0.20 0.20 90 1007.0
20260506154627 51 158 4.0 10.0 0.20 0.20 0.20 90 1006.9
20260506153627 52 151 6.0 16.0 0.18 0.18 0.18 89 1006.9
20260506152627 53 250 2.0 14.0 0.17 0.17 0.17 89 1006.5
20260506151627 55 255 8.0 15.0 0.16 0.16 0.16 84 1005.9
20260506150627 60 185 5.0 11.0 0.00 0.00 0.00 72 1004.9
20260506145627 61 33 0.0 0.0 0.00 0.00 0.00 71 1004.4
20260506144627 61 33 0.0 1.0 0.00 0.00 0.00 72 1004.5
20260506143627 62 33 1.0 4.0 0.00 0.00 0.00 71 1004.5
20260506142626 64 29 1.0 5.0 0.00 0.00 0.00 68 1004.6
20260506141626 63 142 0.0 1.0 0.00 0.00 0.00 73 1004.5
20260506140626 62 142 0.0 2.0 0.00 0.00 0.00 72 1004.5
20260506135626 61 136 0.0 2.0 0.00 0.06 0.00 75 1004.4
20260506134626 61 131 0.0 1.0 0.00 0.06 0.00 76 1004.8
20260506133626 61 131 1.0 2.0 0.00 0.06 0.00 76 1005.0
20260506132626 62 127 0.0 1.0 0.00 0.06 0.00 72 1005.1
20260506131627 62 126 0.0 3.0 0.00 0.06 0.00 70 1005.0
20260506130627 63 124 1.0 4.0 0.00 0.06 0.00 67 1005.0
20260506125627 64 68 1.0 3.0 0.00 0.06 0.00 66 1004.9
20260506124626 64 72 1.0 2.0 0.00 0.06 0.00 67 1004.8
20260506123626 63 25 0.0 2.0 0.00 0.06 0.00 68 1004.7
20260506122626 63 25 0.0 2.0 0.00 0.06 0.00 71 1004.7